Zurück zum Katalog

STARLINK-1316

AktivKommunikationVLEO
NORAD 45415·PAYLOAD·🇺🇸 United States

Gestartet Mar 18, 2020 von Cape Canaveral Space Force Station

Loading…

Nächste Überflüge (nächste 24 Stunden)

TLE

AktuellSource: CelesTrak SupGP

Epoche: Sep 15, 2026, 01:28 UTC

1 45415C 20019BH  26258.06159722  .00082431  00000+0  15395-2 0  2586
2 45415  53.1507 317.6140 0004585  19.0355 154.0937 15.48115366    19

Verfolge STARLINK-1316 in Echtzeit mit AllMySat

Download on the App Store